Regional Weather Roundup
Issued by NWS

Home | Current Version | Previous Version | Graphics & Text | Print | Product List | Glossary On
Versions: 1 2 3 4 5 6 7 8 9 10 11 12 13 14 15 16 17 18 19 20 21 22 23 24 25 26 27 28 29 30 31 32 33 34 35 36 37 38 39 40 41 42 43 44 45 46 47 48 49 50
000
ASUS45 KCYS 232110
RWRWY

WYOMING REGIONAL WEATHER ROUNDUP
NATIONAL WEATHER SERVICE CHEYENNE WY
300 PM MDT MON OCT 23 2017

NOTE:  "FAIR" INDICATES FEW OR NO CLOUDS BELOW 12,000 FEET
WITH NO SIGNIFICANT WEATHER AND/OR OBSTRUCTIONS TO VISIBILITY.

WYZ001-232200-
YELLOWSTONE NATIONAL PARK

CITY           SKY/WX    TMP DP  RH WIND       PRES   REMARKS
LK YELLOWSTONE   N/A     40 N/A N/A VRB6      30.61R
W YELLOWSTONE  NOT AVBL

$$
WYZ002>013-054>058-071-098>099-232200-
NORTHERN WYOMING

CITY           SKY/WX    TMP DP  RH WIND       PRES   REMARKS
JACKSON        FAIR      49  18  29 NW16      30.59R
CODY           FAIR      56  16  20 NW12G20   30.50F
GREYBULL       FAIR      58  14  17 N22G35    30.48R
WORLAND        FAIR      57  20  23 N20G25    30.48S
SHERIDAN       FAIR      56  22  26 N25G37    30.46S
BUFFALO        FAIR      52  16  24 NW26G35   30.46R
GILLETTE       FAIR      54  18  24 NW31      30.42S
HULETT         FAIR      50  19  29 NW18G32   30.40S
NEWCASTLE      FAIR      50  16  25 NW26G35   30.40S

$$
WYZ014>020-022>026-101>103-232200-
CENTRAL WYOMING

CITY           SKY/WX    TMP DP  RH WIND       PRES   REMARKS
BIG PINEY      FAIR      52  15  23 N22G29    30.55S
PINEDALE       FAIR      48  16  27 NW17G25   30.55S
DUBOIS         FAIR      45  16  31 N20G29    30.53S
LANDER         FAIR      56  18  22 NW7       30.46F
RIVERTON       FAIR      56  18  22 NE12      30.47S
CASPER         FAIR      53  14  21 NW20G29   30.47R
DOUGLAS        FAIR      53  20  27 NW23G29   30.44R

$$
WYZ021-027>030-104>119-232200-
SOUTHERN WYOMING

CITY           SKY/WX    TMP DP  RH WIND       PRES   REMARKS
EVANSTON       FAIR      57  16  20 NW12G22   30.62R
KEMMERER       FAIR      52  23  32 W16G30    30.59F
FORT BRIDGER   FAIR      58  19  22 W20G28    30.61S
ROCK SPRINGS   FAIR      54  19  25 NW21G29   30.52S
DIXON          FAIR      57  21  24 W16G26    30.52S
RAWLINS        FAIR      53  19  26 W18       30.48S
SARATOGA       MOCLDY    54  21  28 W13G35    30.50R
LARAMIE        FAIR      50  22  33 NW26G33   30.43S
CHEYENNE       FAIR      51  18  27 N16G29    30.40S
TORRINGTON     FAIR      56  15  20 NW28G40   30.38S
PINE BLUFFS    FAIR      52  18  25 N25G35    30.40S

$$



USA.gov is the U.S. government's official web portal to all federal, state and local government web resources and services.